Whiting Fld NAS, FL

12:28 PM CDT on April 26, 2018 (GMT -0500)
Whiting Field Naval Air Station (North)

Weather History for KNSE - April, 2014

Change the Weather History Date:

Tuesday, April 29, 2014

  Actual Average Record
Temperature  
Mean Temperature 70 °F -  
Max Temperature 78 °F 77 °F 91 °F (2012)
Min Temperature 62 °F 58 °F 48 °F (2011)
Cooling Degree Days 4    
Growing Degree Days 20 (Base 50)    
Moisture  
Dew Point 65 °F    
Average Humidity 90    
Maximum Humidity 94    
Minimum Humidity 81    
Precipitation  
Precipitation 7.04 in - - ()
Sea Level Pressure  
Sea Level Pressure 29.77 in    
Wind  
Wind Speed 14 mph (SE)    
Max Wind Speed 24 mph    
Max Gust Speed 36 mph    
Visibility 5 miles    
Events Fog , Rain , Thunderstorm    
Averages and records for this station are not official NWS values.
T = Trace of Precipitation, MM = Missing Value Source: NWS Daily Summary

Daily Weather History Graph

Daily Weather History Graph

Search for Another Location

Airport or City:

Astronomy

Apr. 29, 2014 Rise Set
Actual Time 6:05 AM CDT 7:25 PM CDT
Civil Twilight 5:40 AM CDT 7:50 PM CDT
Nautical Twilight 5:10 AM CDT 8:21 PM CDT
Astronomical Twilight 4:38 AM CDT 8:52 PM CDT
Moon 6:23 AM CDT (4/29) 8:03 PM CDT (4/29)
Length of Visible Light 14h 10m
Length of Day
13h 19m
New Moon, 0% of the Moon is Illuminated
Apr 29
New Moon
May 6
First Quarter
May 14
Full
May 21
Last Quarter
May 28
New

Hourly Weather History & Observations

Time (CDT) Temp. Dew Point Humidity Pressure Visibility Wind Dir Wind Speed Gust Speed Precip Events Conditions
12:14 AM 77.0 °F 72.0 °F 84% 29.74 in 7.0 mi South 19.6 mph 33.4 mph N/A   Overcast
12:42 AM 77.0 °F 72.0 °F 84% 29.74 in 7.0 mi South 23.0 mph 34.5 mph N/A   Overcast
12:49 AM 77.0 °F 72.0 °F 84% 29.74 in 7.0 mi South 20.7 mph 34.5 mph N/A   Overcast
12:56 AM 77.0 °F 72.0 °F 84% 29.69 in 7.0 mi South 24.2 mph 33.4 mph N/A   Overcast
1:22 AM 77.0 °F 72.0 °F 84% 29.71 in 7.0 mi South 20.7 mph 35.7 mph N/A   Overcast
1:56 AM 75.9 °F 72.0 °F 87% 29.68 in 7.0 mi South 21.9 mph 28.8 mph N/A   Overcast
2:45 AM 77.0 °F 72.0 °F 84% 29.73 in 7.0 mi South 20.7 mph 31.1 mph N/A Thunderstorm Thunderstorm
2:52 AM 77.0 °F 71.6 °F 83% 29.75 in 7.0 mi South 15.0 mph 26.5 mph N/A Thunderstorm Thunderstorm
2:56 AM 75.9 °F 72.0 °F 87% 29.70 in 7.0 mi South 17.3 mph 24.2 mph N/A Thunderstorm Thunderstorm
3:11 AM 77.0 °F 72.0 °F 84% 29.75 in 7.0 mi Variable 5.8 mph 19.6 mph N/A Thunderstorm Thunderstorm
3:29 AM 66.0 °F 62.1 °F 87% 29.80 in 1.8 mi NNW 13.8 mph 23.0 mph 0.18 in Rain , Thunderstorm Heavy Thunderstorms and Rain
3:40 AM 63.0 °F 60.1 °F 90% 29.80 in 0.5 mi Variable 3.5 mph 23.0 mph 0.78 in Fog , Rain , Thunderstorm Heavy Thunderstorms and Rain
3:53 AM 62.6 °F 60.8 °F 94% 29.77 in 1.0 mi SE 12.7 mph - 1.28 in Rain , Thunderstorm Heavy Thunderstorms and Rain
3:56 AM 63.0 °F 61.0 °F 93% 29.73 in 1.2 mi SSE 13.8 mph - 1.33 in Rain , Thunderstorm Heavy Thunderstorms and Rain
4:05 AM 64.0 °F 62.1 °F 93% 29.77 in 2.0 mi SSE 9.2 mph - 0.10 in Rain , Thunderstorm Heavy Thunderstorms and Rain
4:21 AM 64.0 °F 62.1 °F 93% 29.77 in 1.8 mi SSE 12.7 mph - 0.24 in Rain , Thunderstorm Heavy Thunderstorms and Rain
4:35 AM 64.9 °F 63.0 °F 93% 29.77 in 3.0 mi South 9.2 mph - 0.30 in Rain , Thunderstorm Thunderstorms and Rain
4:45 AM 64.9 °F 63.0 °F 93% 29.73 in 5.0 mi ESE 16.1 mph - 0.30 in Rain , Thunderstorm Light Thunderstorms and Rain
4:56 AM 64.9 °F 63.0 °F 93% 29.71 in 8.0 mi ESE 10.4 mph - 0.30 in Rain , Thunderstorm Light Thunderstorms and Rain
5:30 AM 64.9 °F 63.0 °F 93% 29.74 in 8.0 mi ESE 13.8 mph - 0.00 in Rain , Thunderstorm Light Thunderstorms and Rain
5:50 AM 64.4 °F 62.6 °F 94% 29.73 in 10.0 mi East 9.2 mph - 0.00 in Rain Light Rain
5:56 AM 64.9 °F 63.0 °F 93% 29.70 in 10.0 mi ESE 4.6 mph - 0.00 in Rain Light Rain
6:16 AM 64.9 °F 63.0 °F 93% 29.75 in 10.0 mi SE 6.9 mph - 0.00 in Rain Light Rain
6:40 AM 66.0 °F 63.0 °F 90% 29.76 in 10.0 mi SSE 11.5 mph - 0.00 in   Overcast
6:56 AM 64.9 °F 63.0 °F 93% 29.72 in 10.0 mi SSE 4.6 mph - 0.00 in   Mostly Cloudy
7:17 AM 64.9 °F 63.0 °F 93% 29.75 in 10.0 mi South 8.1 mph - N/A   Mostly Cloudy
7:56 AM 64.9 °F 63.0 °F 93% 29.72 in 10.0 mi South 5.8 mph - N/A   Mostly Cloudy
8:56 AM 66.0 °F 63.0 °F 90% 29.72 in 9.0 mi SSW 6.9 mph - N/A   Mostly Cloudy
9:46 AM 66.9 °F 64.0 °F 90% 29.77 in 6.0 mi SSW 9.2 mph - N/A   Mostly Cloudy
9:56 AM 68.0 °F 64.9 °F 90% 29.72 in 6.0 mi South 9.2 mph - N/A   Mostly Cloudy
10:56 AM 70.0 °F 64.9 °F 84% 29.74 in 8.0 mi South 11.5 mph - N/A   Mostly Cloudy
11:56 AM 71.1 °F 64.9 °F 81% 29.74 in 7.0 mi South 13.8 mph - N/A   Overcast
12:56 PM 70.0 °F 64.0 °F 81% 29.76 in 9.0 mi South 8.1 mph - N/A   Overcast
1:56 PM 69.1 °F 64.9 °F 87% 29.73 in 7.0 mi SE 6.9 mph - N/A   Overcast
2:56 PM 70.0 °F 66.0 °F 87% 29.74 in 7.0 mi SE 12.7 mph - N/A   Overcast
3:31 PM 71.1 °F 66.0 °F 84% 29.82 in 8.0 mi NW 10.4 mph - N/A Thunderstorm Thunderstorm
3:46 PM 71.1 °F 66.0 °F 84% 29.84 in 4.0 mi WNW 9.2 mph - 0.01 in Rain , Thunderstorm Thunderstorms and Rain
3:54 PM 69.8 °F 66.2 °F 88% 29.84 in 1.8 mi WNW 12.7 mph - 0.07 in Rain , Thunderstorm Heavy Thunderstorms and Rain
3:56 PM 70.0 °F 66.0 °F 87% 29.80 in 1.2 mi WNW 13.8 mph - 0.10 in Rain , Thunderstorm Heavy Thunderstorms and Rain
4:11 PM 69.1 °F 66.0 °F 90% 29.84 in 0.2 mi NW 5.8 mph - 0.33 in Fog , Rain , Thunderstorm Heavy Thunderstorms and Rain
4:23 PM 68.0 °F 66.0 °F 93% 29.82 in 1.0 mi Calm Calm - 0.42 in Rain , Thunderstorm Thunderstorms and Rain
4:28 PM 68.0 °F 66.0 °F 93% 29.81 in 3.0 mi East 3.5 mph - 0.42 in Rain , Thunderstorm Light Thunderstorms and Rain
4:56 PM 68.0 °F 66.0 °F 93% 29.79 in 4.0 mi SSE 8.1 mph - 0.42 in Rain , Thunderstorm Light Thunderstorms and Rain
5:31 PM 69.1 °F 66.0 °F 90% 29.82 in 6.0 mi SSE 8.1 mph - 0.00 in Rain , Thunderstorm Light Thunderstorms and Rain
5:56 PM 68.0 °F 66.0 °F 93% 29.77 in 5.0 mi South 3.5 mph - 0.01 in Rain , Thunderstorm Thunderstorms and Rain
6:09 PM 68.0 °F 66.0 °F 93% 29.81 in 1.0 mi South 9.2 mph - 0.11 in Rain , Thunderstorm Heavy Thunderstorms and Rain
6:31 PM 69.1 °F 66.0 °F 90% 29.79 in 1.8 mi SSE 17.3 mph 28.8 mph 0.33 in Rain , Thunderstorm Light Thunderstorms and Rain
6:34 PM 69.1 °F 66.0 °F 90% 29.80 in 3.0 mi SSE 18.4 mph 26.5 mph 0.33 in Rain , Thunderstorm Light Thunderstorms and Rain
6:49 PM 69.1 °F 66.0 °F 90% 29.82 in 2.0 mi SSE 10.4 mph - 0.37 in Rain , Thunderstorm Thunderstorms and Rain
6:56 PM 68.0 °F 66.0 °F 93% 29.76 in 3.0 mi SE 23.0 mph 32.2 mph 0.38 in Rain , Thunderstorm Thunderstorms and Rain
7:28 PM 68.0 °F 66.0 °F 93% 29.81 in 2.5 mi ESE 17.3 mph 25.3 mph 0.10 in Rain , Thunderstorm Heavy Thunderstorms and Rain
7:56 PM 69.1 °F 64.9 °F 87% 29.76 in 10.0 mi ESE 9.2 mph - 0.16 in Rain , Thunderstorm Light Thunderstorms and Rain
8:34 PM 68.0 °F 66.0 °F 93% 29.83 in 1.0 mi ESE 11.5 mph - 0.19 in Rain , Thunderstorm Heavy Thunderstorms and Rain
8:56 PM 68.0 °F 66.0 °F 93% 29.80 in 1.0 mi ENE 13.8 mph - 0.74 in Rain , Thunderstorm Heavy Thunderstorms and Rain
9:03 PM 68.0 °F 66.0 °F 93% 29.81 in 1.0 mi NE 15.0 mph 24.2 mph 0.19 in Rain , Thunderstorm Heavy Thunderstorms and Rain
9:29 PM 68.0 °F 66.0 °F 93% 29.79 in 0.5 mi NE 16.1 mph 28.8 mph 1.41 in Rain , Thunderstorm Heavy Thunderstorms and Rain
9:56 PM 66.9 °F 64.9 °F 93% 29.75 in 0.8 mi North 8.1 mph 24.2 mph 2.61 in Rain , Thunderstorm Heavy Thunderstorms and Rain
10:06 PM 66.0 °F 64.0 °F 93% 29.80 in 2.0 mi ENE 17.3 mph 20.7 mph 0.06 in Rain , Thunderstorm Heavy Thunderstorms and Rain
10:27 PM 66.0 °F 64.0 °F 93% 29.83 in 1.5 mi ENE 11.5 mph - 0.34 in Rain , Thunderstorm Heavy Thunderstorms and Rain
10:45 PM 66.0 °F 63.0 °F 90% 29.82 in 1.8 mi East 17.3 mph 27.6 mph 0.59 in Rain , Thunderstorm Heavy Thunderstorms and Rain
10:56 PM 66.0 °F 64.0 °F 93% 29.78 in 2.0 mi East 13.8 mph - 0.75 in Rain , Thunderstorm Heavy Thunderstorms and Rain
11:03 PM 66.9 °F 64.0 °F 90% 29.84 in 2.0 mi ESE 13.8 mph - 0.08 in Rain , Thunderstorm Heavy Thunderstorms and Rain
11:16 PM 66.0 °F 63.0 °F 90% 29.80 in 3.0 mi East 13.8 mph 25.3 mph 0.20 in Rain , Thunderstorm Heavy Thunderstorms and Rain
11:31 PM 66.0 °F 63.0 °F 90% 29.80 in 2.5 mi East 16.1 mph 24.2 mph 0.23 in Rain , Thunderstorm Thunderstorms and Rain
11:41 PM 66.9 °F 64.0 °F 90% 29.81 in 5.0 mi SE 16.1 mph - 0.24 in Rain , Thunderstorm Thunderstorms and Rain
11:49 PM 66.9 °F 64.0 °F 90% 29.78 in 6.0 mi ENE 13.8 mph 23.0 mph 0.24 in Rain , Thunderstorm Thunderstorms and Rain
11:56 PM 66.9 °F 64.0 °F 90% 29.78 in 6.0 mi East 12.7 mph 25.3 mph 0.24 in Rain , Thunderstorm Light Thunderstorms and Rain